Location: Andrest
(43.3200°N, 0.0641°E)
Time: 09:28:11
(UTC+00:00)

CSL-04 Debris - Pass Details

Date: 01 December 2020
Orbit: 826 x 848 km, 98.9° (Epoch: 23 January)

Event Time Altitude Azimuth Distance (km) Brightness Sun altitude
Exits shadow 19:09:12 68° 331° (NNW) 914 4.3 -29.2°
Drops below altitude 10° 19:14:00 10° 345° (NNW) 2,480 6.7 -30.1°
Sets 19:16:22 0° 346° (NNW) 3,417 7.5 -30.5°
